�������l�o���
Date,Time,MP-1(��Sv/h),MP-2(��Sv/h),MP-3(��Sv/h),MP-4(��Sv/h),MP-5(��Sv/h),MP-6(��Sv/h),MP-7(��Sv/h),����,����(m/s),���J
2020/10/07,00:00,0.180,0.162,0.262,0.249,0.247,0.143,0.085,�k��,4.6,��
2020/10/07,00:10,0.180,0.163,0.262,0.247,0.247,0.142,0.085,�k�k��,6.1,��
2020/10/07,00:20,0.180,0.162,0.263,0.248,0.247,0.141,0.085,�k�k��,5.9,��
2020/10/07,00:30,0.179,0.161,0.263,0.249,0.249,0.140,0.085,�k�k��,5.4,��
2020/10/07,00:40,0.180,0.162,0.261,0.248,0.246,0.141,0.086,�k�k��,5.8,��
2020/10/07,00:50,0.179,0.162,0.262,0.249,0.248,0.140,0.084,�k�k��,4.2,��
2020/10/07,01:00,0.179,0.162,0.262,0.248,0.246,0.141,0.085,�k�k��,4.8,��
2020/10/07,01:10,0.180,0.161,0.261,0.247,0.247,0.140,0.085,�k��,2.1,��
2020/10/07,01:20,0.180,0.162,0.263,0.249,0.247,0.141,0.085,�k�k��,2.5,��
2020/10/07,01:30,0.180,0.163,0.261,0.249,0.246,0.141,0.085,�k�k��,3.3,��
2020/10/07,01:40,0.179,0.161,0.262,0.248,0.248,0.141,0.085,�k��,2.1,��
2020/10/07,01:50,0.180,0.163,0.263,0.249,0.248,0.143,0.086,�k�k��,1.8,��
2020/10/07,02:00,0.179,0.162,0.262,0.247,0.248,0.142,0.085,�k�k��,2.7,��
2020/10/07,02:10,0.180,0.163,0.262,0.248,0.246,0.141,0.084,�k�k��,3.3,��
2020/10/07,02:20,0.180,0.163,0.263,0.249,0.246,0.141,0.086,�k�k��,4.0,��
2020/10/07,02:30,0.180,0.162,0.261,0.248,0.249,0.141,0.085,�k�k��,3.2,��
2020/10/07,02:40,0.181,0.162,0.262,0.248,0.246,0.140,0.084,�k,3.4,��
2020/10/07,02:50,0.179,0.162,0.262,0.249,0.247,0.140,0.086,�k�k��,2.9,��
2020/10/07,03:00,0.180,0.163,0.262,0.248,0.247,0.140,0.085,�k��,2.7,��
2020/10/07,03:10,0.180,0.161,0.262,0.248,0.247,0.141,0.085,�k�k��,2.4,��
2020/10/07,03:20,0.179,0.161,0.262,0.247,0.247,0.141,0.086,�k��,1.9,��
2020/10/07,03:30,0.179,0.162,0.261,0.248,0.245,0.141,0.085,�k�k��,1.5,��
2020/10/07,03:40,0.178,0.162,0.261,0.249,0.247,0.142,0.085,�k�k��,1.7,��
2020/10/07,03:50,0.181,0.162,0.261,0.247,0.246,0.140,0.085,�k�k��,2.3,��
2020/10/07,04:00,0.179,0.162,0.263,0.248,0.247,0.141,0.085,�k�k��,1.9,��
2020/10/07,04:10,0.180,0.162,0.261,0.247,0.246,0.141,0.084,�k,2.0,��
2020/10/07,04:20,0.178,0.162,0.262,0.248,0.248,0.141,0.085,�k�k��,2.2,��
2020/10/07,04:30,0.180,0.163,0.262,0.248,0.245,0.141,0.085,�k�k��,2.3,��
2020/10/07,04:40,0.181,0.162,0.261,0.248,0.249,0.141,0.085,�k�k��,2.7,��
2020/10/07,04:50,0.180,0.162,0.262,0.248,0.245,0.141,0.084,�k�k��,2.9,��
2020/10/07,05:00,0.180,0.161,0.262,0.247,0.248,0.140,0.085,�k�k��,2.9,��
2020/10/07,05:10,0.179,0.161,0.263,0.248,0.245,0.142,0.085,�k�k��,2.9,��
2020/10/07,05:20,0.180,0.162,0.261,0.248,0.248,0.140,0.085,�k�k��,2.9,��
2020/10/07,05:30,0.179,0.162,0.262,0.246,0.248,0.141,0.085,�k�k��,3.4,��
2020/10/07,05:40,0.180,0.162,0.262,0.248,0.246,0.141,0.085,�k�k��,3.4,��
2020/10/07,05:50,0.181,0.162,0.261,0.247,0.247,0.140,0.084,�k�k��,3.7,��
2020/10/07,06:00,0.179,0.162,0.262,0.247,0.247,0.140,0.086,�k�k��,3.5,��
2020/10/07,06:10,0.181,0.162,0.262,0.248,0.248,0.140,0.086,�k�k��,4.6,��
2020/10/07,06:20,0.178,0.162,0.261,0.247,0.246,0.140,0.085,�k�k��,5.1,��
2020/10/07,06:30,0.181,0.162,0.262,0.248,0.247,0.140,0.085,�k�k��,4.7,��
2020/10/07,06:40,0.180,0.163,0.261,0.247,0.246,0.141,0.085,�k�k��,5.2,��
2020/10/07,06:50,0.180,0.161,0.262,0.247,0.247,0.140,0.085,�k��,4.8,��
2020/10/07,07:00,0.181,0.161,0.260,0.249,0.246,0.140,0.085,�k��,4.5,��
2020/10/07,07:10,0.179,0.162,0.261,0.247,0.247,0.141,0.086,�k�k��,5.0,��
2020/10/07,07:20,0.180,0.161,0.261,0.248,0.246,0.141,0.085,�k�k��,4.9,��
2020/10/07,07:30,0.179,0.161,0.261,0.245,0.247,0.141,0.085,�k��,4.1,��
2020/10/07,07:40,0.181,0.161,0.261,0.247,0.245,0.140,0.086,�k��,3.3,��
2020/10/07,07:50,0.179,0.162,0.261,0.246,0.245,0.141,0.085,�k�k��,2.8,��
2020/10/07,08:00,0.181,0.160,0.261,0.248,0.246,0.141,0.085,�k�k��,2.8,��
2020/10/07,08:10,0.179,0.161,0.264,0.246,0.247,0.141,0.085,�k,3.9,��
2020/10/07,08:20,0.180,0.161,0.260,0.246,0.244,0.141,0.084,�k,4.5,��
2020/10/07,08:30,0.179,0.161,0.263,0.248,0.248,0.141,0.084,�k,3.4,��
2020/10/07,08:40,0.179,0.162,0.259,0.246,0.245,0.140,0.086,�k,5.1,��
2020/10/07,08:50,0.180,0.160,0.260,0.246,0.245,0.141,0.085,�k,3.8,��
2020/10/07,09:00,0.179,0.162,0.261,0.247,0.249,0.141,0.085,�k�k��,3.2,��
2020/10/07,09:10,0.180,0.161,0.260,0.246,0.245,0.140,0.085,�k�k��,4.6,��
2020/10/07,09:20,0.179,0.162,0.263,0.245,0.245,0.141,0.085,�k�k��,4.3,��
2020/10/07,09:30,0.179,0.162,0.261,0.248,0.248,0.141,0.084,�k��,4.6,��
2020/10/07,09:40,0.180,0.161,0.263,0.248,0.247,0.139,0.085,�k��,4.3,��
2020/10/07,09:50,0.180,0.160,0.260,0.246,0.244,0.140,0.084,�k��,4.2,��
2020/10/07,10:00,0.179,0.162,0.261,0.244,0.244,0.141,0.084,�k��,4.7,��
2020/10/07,10:10,0.177,0.161,0.262,0.244,0.246,0.141,0.086,�k��,4.1,��
2020/10/07,10:20,0.178,0.161,0.262,0.248,0.247,0.141,0.084,�k��,4.6,��
2020/10/07,10:30,0.180,0.161,0.259,0.249,0.245,0.141,0.085,�k��,3.7,��
2020/10/07,10:40,0.180,0.162,0.259,0.247,0.245,0.141,0.086,�k��,4.8,��
2020/10/07,10:50,0.178,0.162,0.257,0.244,0.243,0.140,0.085,�k��,4.6,��
2020/10/07,11:00,0.178,0.161,0.261,0.244,0.248,0.141,0.085,���k��,4.1,��
2020/10/07,11:10,0.179,0.162,0.261,0.247,0.247,0.142,0.085,���k��,4.2,��
2020/10/07,11:20,0.181,0.163,0.260,0.250,0.245,0.142,0.086,�k��,4.0,��
2020/10/07,11:30,0.180,0.162,0.258,0.248,0.245,0.141,0.085,�k��,3.5,��
2020/10/07,11:40,0.178,0.160,0.260,0.248,0.245,0.141,0.085,���k��,2.8,��
2020/10/07,11:50,0.177,0.160,0.263,0.246,0.245,0.141,0.084,�k��,2.6,��
2020/10/07,12:00,0.177,0.161,0.260,0.245,0.249,0.141,0.085,���k��,2.9,��
2020/10/07,12:10,0.180,0.163,0.259,0.249,0.249,0.142,0.085,�k��,2.7,��
2020/10/07,12:20,0.180,0.163,0.260,0.250,0.245,0.142,0.085,���k��,3.1,��
2020/10/07,12:30,0.180,0.161,0.263,0.249,0.245,0.141,0.084,���쓌,1.8,��
2020/10/07,12:40,0.178,0.163,0.261,0.246,0.245,0.141,0.084,��,1.7,��
2020/10/07,12:50,0.181,0.162,0.260,0.248,0.248,0.142,0.085,��,2.6,��
2020/10/07,13:00,0.180,0.161,0.263,0.250,0.247,0.141,0.084,��,1.8,��
2020/10/07,13:10,0.179,0.163,0.262,0.249,0.245,0.140,0.085,��,1.2,��
2020/10/07,13:20,0.180,0.162,0.260,0.246,0.247,0.141,0.085,���k��,1.0,��
2020/10/07,13:30,0.180,0.162,0.264,0.250,0.249,0.142,0.084,��,0.8,��
2020/10/07,13:40,0.178,0.163,0.261,0.249,0.246,0.141,0.085,���쓌,1.3,��
2020/10/07,13:50,0.180,0.163,0.260,0.247,0.246,0.140,0.085,���쓌,1.6,��
2020/10/07,14:00,0.181,0.162,0.263,0.251,0.248,0.140,0.085,���쓌,1.0,��
2020/10/07,14:10,0.178,0.163,0.262,0.250,0.247,0.140,0.085,���쓌,1.4,��
2020/10/07,14:20,0.178,0.161,0.261,0.246,0.244,0.141,0.085,��,1.6,��
2020/10/07,14:30,0.181,0.162,0.265,0.249,0.248,0.141,0.084,���쓌,2.7,��
2020/10/07,14:40,0.179,0.162,0.261,0.249,0.248,0.140,0.085,���쓌,2.7,��
2020/10/07,14:50,0.179,0.162,0.263,0.248,0.245,0.141,0.085,���쓌,1.3,��
2020/10/07,15:00,0.179,0.163,0.264,0.250,0.248,0.141,0.085,�쓌,2.1,��
2020/10/07,15:10,0.180,0.162,0.261,0.247,0.247,0.141,0.085,���쓌,2.3,��
2020/10/07,15:20,0.179,0.161,0.262,0.250,0.247,0.141,0.086,���쓌,1.5,��
2020/10/07,15:30,0.181,0.163,0.260,0.251,0.249,0.142,0.085,���쓌,1.7,��
2020/10/07,15:40,0.179,0.162,0.264,0.249,0.246,0.141,0.086,���쓌,2.1,��
2020/10/07,15:50,0.180,0.162,0.263,0.250,0.248,0.141,0.084,���쓌,1.5,��
2020/10/07,16:00,0.180,0.163,0.262,0.248,0.248,0.142,0.085,���쓌,1.2,��
2020/10/07,16:10,0.180,0.162,0.263,0.250,0.246,0.141,0.085,���쓌,0.9,��
2020/10/07,16:20,0.180,0.163,0.262,0.248,0.249,0.141,0.084,��,1.7,��
2020/10/07,16:30,0.179,0.162,0.265,0.249,0.245,0.140,0.085,�쓌,1.3,��
2020/10/07,16:40,0.181,0.162,0.261,0.249,0.247,0.141,0.085,��쓌,1.0,��
2020/10/07,16:50,0.180,0.162,0.264,0.248,0.248,0.141,0.086,���쓌,0.8,��
2020/10/07,17:00,0.179,0.163,0.261,0.250,0.246,0.141,0.085,�쓌,1.5,��
2020/10/07,17:10,0.180,0.162,0.263,0.248,0.248,0.141,0.085,�쓌,2.4,�L
2020/10/07,17:20,0.179,0.162,0.262,0.250,0.247,0.141,0.084,�쓌,2.4,�L
2020/10/07,17:30,0.180,0.162,0.263,0.248,0.247,0.141,0.085,��,1.0,�L
2020/10/07,17:40,0.180,0.162,0.262,0.248,0.247,0.142,0.086,��,1.6,�L
2020/10/07,17:50,0.181,0.163,0.262,0.248,0.248,0.142,0.085,�쓌,1.9,�L
2020/10/07,18:00,0.180,0.163,0.261,0.248,0.246,0.142,0.086,��쓌,0.6,�L
2020/10/07,18:10,0.181,0.163,0.263,0.248,0.249,0.142,0.086,�쓌,0.6,�L
2020/10/07,18:20,0.181,0.163,0.263,0.249,0.246,0.142,0.086,��쓌,1.6,�L
2020/10/07,18:30,0.180,0.161,0.261,0.249,0.247,0.142,0.086,��쓌,2.4,�L
2020/10/07,18:40,0.180,0.163,0.262,0.248,0.246,0.142,0.086,��,1.7,�L
2020/10/07,18:50,0.179,0.163,0.260,0.247,0.248,0.142,0.086,��쐼,1.7,�L
2020/10/07,19:00,0.180,0.164,0.260,0.245,0.244,0.142,0.086,�쐼,1.8,�L
2020/10/07,19:10,0.179,0.162,0.260,0.248,0.246,0.141,0.085,���쐼,2.0,�L
2020/10/07,19:20,0.180,0.161,0.261,0.246,0.246,0.142,0.086,��쐼,0.9,�L
2020/10/07,19:30,0.178,0.161,0.259,0.247,0.245,0.141,0.086,��쓌,1.8,�L
2020/10/07,19:40,0.180,0.162,0.261,0.245,0.245,0.142,0.086,�쓌,1.5,�L
2020/10/07,19:50,0.178,0.161,0.259,0.246,0.245,0.140,0.086,�쐼,2.0,�L
2020/10/07,20:00,0.180,0.162,0.260,0.245,0.245,0.141,0.085,��쐼,1.6,�L
2020/10/07,20:10,0.179,0.162,0.259,0.245,0.244,0.140,0.085,��쐼,1.2,�L
2020/10/07,20:20,0.179,0.161,0.258,0.247,0.246,0.141,0.085,��쓌,1.2,�L
2020/10/07,20:30,0.178,0.160,0.259,0.244,0.244,0.141,0.085,��쓌,1.3,�L
2020/10/07,20:40,0.179,0.161,0.258,0.247,0.246,0.141,0.085,���쐼,0.8,�L
2020/10/07,20:50,0.180,0.161,0.258,0.243,0.243,0.141,0.086,���쐼,1.7,�L
2020/10/07,21:00,0.177,0.161,0.257,0.245,0.247,0.140,0.085,��쐼,1.2,�L
2020/10/07,21:10,0.180,0.160,0.258,0.245,0.243,0.140,0.085,��,1.3,�L
2020/10/07,21:20,0.178,0.160,0.259,0.245,0.245,0.140,0.085,���쐼,1.2,�L
2020/10/07,21:30,0.178,0.160,0.257,0.243,0.244,0.139,0.085,��,0.6,�L
2020/10/07,21:40,0.178,0.161,0.257,0.243,0.246,0.140,0.085,��,1.0,�L
2020/10/07,21:50,0.178,0.159,0.257,0.244,0.244,0.141,0.085,�쐼,1.5,�L
2020/10/07,22:00,0.177,0.160,0.256,0.242,0.244,0.140,0.085,���쐼,2.3,�L
2020/10/07,22:10,0.178,0.161,0.256,0.244,0.243,0.140,0.085,��쐼,1.4,�L
2020/10/07,22:20,0.177,0.160,0.257,0.243,0.244,0.139,0.085,��,2.0,�L
2020/10/07,22:30,0.177,0.160,0.257,0.243,0.244,0.139,0.085,��쐼,1.8,�L
2020/10/07,22:40,0.178,0.160,0.257,0.243,0.244,0.139,0.085,�쐼,1.7,�L
2020/10/07,22:50,0.178,0.161,0.257,0.243,0.244,0.140,0.085,���쐼,2.0,�L
2020/10/07,23:00,0.178,0.161,0.256,0.244,0.243,0.139,0.084,���쐼,1.6,�L
2020/10/07,23:10,0.177,0.160,0.257,0.242,0.244,0.140,0.084,�쐼,1.5,�L
2020/10/07,23:20,0.179,0.160,0.256,0.243,0.243,0.139,0.084,�쐼,1.5,�L
2020/10/07,23:30,0.177,0.160,0.257,0.242,0.245,0.140,0.086,��,1.6,�L
2020/10/07,23:40,0.179,0.160,0.254,0.243,0.244,0.139,0.085,��,1.4,�L
2020/10/07,23:50,0.176,0.160,0.256,0.242,0.243,0.139,0.085,��쐼,1.5,�L
